Location: Unspecified
(0.0000°N, 0.0000°E)
Time: 17:29:44
(UTC+00:00)

Explorer 7 - All Passes

Search period start: 30 October 2014 00:00
Search period end: 09 November 2014 00:00
Orbit: 491 x 704 km, 50.3° (Epoch: 30 October)

Date Brightness Start Highest point End Pass type
(mag) Time Alt. Az. Time Alt. Az. Time Alt. Az.
30 Oct - 09:51:12 10° NNW 09:56:01 46° NE 10:00:44 10° SE daylight
30 Oct - 11:34:03 10° W 11:36:48 15° SW 11:39:31 10° SSW daylight
30 Oct - 21:56:57 10° SSW 22:00:41 63° SE 22:04:30 10° NE night (unlit)
31 Oct - 10:00:55 10° NW 10:05:57 79° SW 10:10:53 10° SSE daylight
31 Oct - 22:07:00 10° SW 22:10:37 44° NW 22:14:19 10° NNE night (unlit)
01 Nov - 08:31:26 10° N 08:35:02 20° NE 08:38:38 10° E daylight
01 Nov - 10:11:18 10° WNW 10:15:53 35° SW 10:20:22 10° SSE daylight
01 Nov - 20:37:06 10° S 20:39:57 20° SE 20:42:48 10° ENE night (unlit)
01 Nov - 22:18:00 10° W 22:20:34 17° NW 22:23:10 10° N night (unlit)
02 Nov - 08:40:16 10° NNW 08:45:00 42° NE 08:49:42 10° ESE daylight
02 Nov - 10:22:39 10° W 10:25:49 17° SW 10:28:57 10° SSW daylight
02 Nov - 20:46:10 10° SSW 20:49:51 54° SE 20:53:34 10° NE night (unlit)
03 Nov - 08:49:52 10° NW 08:54:54 88° SW 08:59:54 10° SE daylight
03 Nov - 20:56:05 10° SW 20:59:44 50° NW 21:03:26 10° NNE night (unlit)
04 Nov - 07:20:38 10° N 07:23:58 18° NE 07:27:19 10° E daylight
04 Nov - 09:00:06 10° WNW 09:04:48 39° SW 09:09:27 10° SSE daylight
04 Nov - 19:26:23 10° S 19:29:01 18° SE 19:31:39 10° E visible
04 Nov - 21:06:53 10° W 21:09:38 19° NW 21:12:24 10° N night (unlit)
05 Nov - 07:29:16 10° NNW 07:33:53 37° NE 07:38:31 10° ESE daylight
05 Nov - 09:11:13 10° W 09:14:42 19° SW 09:18:11 10° S daylight
05 Nov - 19:35:16 10° SSW 19:38:55 46° SE 19:42:32 10° NE visible
06 Nov - 07:38:45 10° NW 07:43:45 83° NE 07:48:47 10° SE daylight
06 Nov - 19:45:02 10° SW 19:48:46 59° NW 19:52:28 10° NNE visible
07 Nov - 06:09:49 10° NNE 06:12:48 16° NE 06:15:48 10° E daylight
07 Nov - 07:48:51 10° NW 07:53:37 44° SW 07:58:24 10° SSE daylight
07 Nov - 18:15:34 10° SSE 18:17:59 16° SE 18:20:22 10° E visible
07 Nov - 19:55:40 10° WSW 19:58:36 22° NW 20:01:33 10° N visible
08 Nov - 06:18:13 10° N 06:22:40 33° NE 06:27:11 10° ESE daylight
08 Nov - 07:59:45 10° W 08:03:29 21° SW 08:07:14 10° S daylight
08 Nov - 18:24:14 10° SSW 18:27:52 40° SE 18:31:24 10° NE visible
